• In France
  • List of Countries
  • For 7 days
  • Water Temperature
  • Satellite Maps
  • Weather Map
  • Weather Widgets
  • user-avatar
    Login

    Hourly Weather Ashilta

    Today, 22 August, Wednesday

    Time Temperature Precipitation Wind Pressure Humidity
    00:00 +20°C° 0 mm 2 mps 708 mmHg 71%
    01:00 +19°C° 0 mm 2 mps 707 mmHg 68%
    02:00 +19°C° 0 mm 2 mps 707 mmHg 66%
    03:00 +19°C° 0 mm 2 mps 707 mmHg 66%
    04:00 +19°C° 0 mm 2 mps 707 mmHg 65%
    05:00 +19°C° 0 mm 2 mps 707 mmHg 64%
    06:00 +19°C° 0 mm 2 mps 707 mmHg 63%
    07:00 +23°C° 0 mm 2 mps 708 mmHg 58%
    08:00 +25°C° 0 mm 1 mps 708 mmHg 52%
    09:00 +27°C° 0 mm 1 mps 708 mmHg 46%
    10:00 +28°C° 0 mm 2 mps 708 mmHg 45%
    11:00 +29°C° 0 mm 2 mps 708 mmHg 44%
    12:00 +29°C° 0 mm 2 mps 708 mmHg 43%
    13:00 +29°C° 0.1 mm 3 mps 708 mmHg 44%
    14:00 +29°C° 0.1 mm 3 mps 708 mmHg 46%
    15:00 +29°C° 0.1 mm 3 mps 707 mmHg 48%
    16:00 +28°C° 0.1 mm 2 mps 707 mmHg 52%
    17:00 +27°C° 0.1 mm 2 mps 707 mmHg 57%
    18:00 +26°C° 0.1 mm 2 mps 707 mmHg 62%
    19:00 +25°C° 0.1 mm 2 mps 707 mmHg 64%
    20:00 +24°C° 0.1 mm 2 mps 708 mmHg 67%
    21:00 +23°C° 0.1 mm 2 mps 708 mmHg 70%
    22:00 +21°C° 0 mm 2 mps 708 mmHg 71%
    23:00 +21°C° 0 mm 2 mps 708 mmHg 71%

    Tomorrow, 23 August, Thursday

    Time Temperature Precipitation Wind Pressure Humidity
    00:00 +20°C° 0 mm 2 mps 708 mmHg 72%
    01:00 +20°C° 0 mm 2 mps 708 mmHg 72%
    02:00 +20°C° 0 mm 2 mps 708 mmHg 72%
    03:00 +19°C° 0 mm 2 mps 708 mmHg 72%
    04:00 +19°C° 0 mm 2 mps 708 mmHg 71%
    05:00 +20°C° 0 mm 2 mps 708 mmHg 69%
    06:00 +20°C° 0 mm 2 mps 708 mmHg 68%
    07:00 +23°C° 0 mm 2 mps 709 mmHg 61%
    08:00 +25°C° 0 mm 2 mps 709 mmHg 53%
    09:00 +27°C° 0 mm 2 mps 709 mmHg 46%
    10:00 +28°C° 0 mm 2 mps 710 mmHg 43%
    11:00 +29°C° 0 mm 3 mps 710 mmHg 41%
    12:00 +30°C° 0 mm 3 mps 710 mmHg 39%
    13:00 +30°C° 0 mm 3 mps 710 mmHg 40%
    14:00 +29°C° 0 mm 3 mps 709 mmHg 41%
    15:00 +29°C° 0 mm 3 mps 709 mmHg 42%
    16:00 +28°C° 0 mm 3 mps 709 mmHg 47%
    17:00 +27°C° 0 mm 2 mps 709 mmHg 52%
    18:00 +26°C° 0 mm 2 mps 709 mmHg 57%
    19:00 +24°C° 0 mm 2 mps 709 mmHg 62%
    20:00 +23°C° 0 mm 2 mps 710 mmHg 67%
    21:00 +22°C° 0 mm 1 mps 710 mmHg 72%
    22:00 +20°C° 0 mm 2 mps 710 mmHg 73%
    23:00 +20°C° 0 mm 2 mps 710 mmHg 74%

    Day after tomorrow, 24 August, Friday

    Time Temperature Precipitation Wind Pressure Humidity
    00:00 +20°C° 0 mm 2 mps 710 mmHg 75%
    01:00 +19°C° 0 mm 2 mps 710 mmHg 74%
    02:00 +19°C° 0 mm 2 mps 710 mmHg 74%
    03:00 +19°C° 0 mm 2 mps 710 mmHg 74%
    04:00 +19°C° 0 mm 2 mps 710 mmHg 74%
    05:00 +19°C° 0 mm 2 mps 710 mmHg 73%
    06:00 +19°C° 0 mm 2 mps 710 mmHg 73%
    07:00 +21°C° 0 mm 3 mps 710 mmHg 67%
    08:00 +24°C° 0 mm 3 mps 710 mmHg 61%
    09:00 +27°C° 0 mm 3 mps 710 mmHg 55%
    10:00 +27°C° 0 mm 4 mps 710 mmHg 55%
    11:00 +28°C° 0 mm 4 mps 710 mmHg 54%
    12:00 +28°C° 0 mm 4 mps 710 mmHg 53%
    13:00 +28°C° 0 mm 4 mps 710 mmHg 54%
    14:00 +28°C° 0 mm 4 mps 709 mmHg 56%
    15:00 +28°C° 0 mm 4 mps 709 mmHg 57%
    16:00 +27°C° 0.2 mm 4 mps 709 mmHg 62%
    17:00 +26°C° 0.2 mm 4 mps 709 mmHg 67%
    18:00 +24°C° 0.2 mm 3 mps 709 mmHg 71%
    19:00 +22°C° 0.1 mm 3 mps 709 mmHg 74%
    20:00 +21°C° 0.1 mm 2 mps 709 mmHg 77%
    21:00 +20°C° 0.1 mm 2 mps 709 mmHg 80%
    22:00 +20°C° 0 mm 2 mps 709 mmHg 78%
    23:00 +19°C° 0 mm 2 mps 708 mmHg 76%

    25 August, Saturday

    Time Temperature Precipitation Wind Pressure Humidity
    00:00 +19°C° 0 mm 2 mps 708 mmHg 74%
    01:00 +19°C° 0 mm 2 mps 708 mmHg 73%
    02:00 +19°C° 0 mm 2 mps 708 mmHg 73%
    03:00 +19°C° 0 mm 2 mps 707 mmHg 72%
    04:00 +19°C° 0 mm 2 mps 707 mmHg 71%
    05:00 +19°C° 0 mm 2 mps 707 mmHg 70%
    06:00 +19°C° 0 mm 2 mps 707 mmHg 69%
    07:00 +23°C° 0 mm 2 mps 707 mmHg 62%
    08:00 +25°C° 0 mm 2 mps 708 mmHg 54%
    09:00 +28°C° 0 mm 2 mps 708 mmHg 47%
    10:00 +29°C° 0 mm 3 mps 708 mmHg 45%
    11:00 +29°C° 0 mm 3 mps 708 mmHg 43%
    12:00 +30°C° 0 mm 4 mps 707 mmHg 41%
    13:00 +30°C° 0.1 mm 4 mps 707 mmHg 42%
    14:00 +30°C° 0.1 mm 4 mps 707 mmHg 43%
    15:00 +30°C° 0.1 mm 4 mps 707 mmHg 45%
    16:00 +28°C° 0 mm 3 mps 707 mmHg 50%
    17:00 +27°C° 0 mm 3 mps 706 mmHg 55%
    18:00 +26°C° 0 mm 2 mps 706 mmHg 60%
    19:00 +24°C° 0 mm 2 mps 706 mmHg 65%
    20:00 +23°C° 0 mm 2 mps 706 mmHg 69%
    21:00 +21°C° 0 mm 2 mps 706 mmHg 73%
    22:00 +21°C° 0 mm 2 mps 706 mmHg 73%
    23:00 +21°C° 0 mm 2 mps 706 mmHg 74%

    26 August, Sunday

    Time Temperature Precipitation Wind Pressure Humidity
    00:00 +20°C° 0 mm 2 mps 706 mmHg 74%
    01:00 +20°C° 0 mm 2 mps 706 mmHg 73%
    02:00 +20°C° 0 mm 2 mps 706 mmHg 73%
    03:00 +20°C° 0 mm 2 mps 705 mmHg 73%
    04:00 +21°C° 0 mm 1 mps 706 mmHg 71%
    05:00 +21°C° 0 mm 1 mps 706 mmHg 69%
    06:00 +21°C° 0 mm 1 mps 706 mmHg 67%
    07:00 +23°C° 0 mm 2 mps 706 mmHg 60%
    08:00 +26°C° 0 mm 2 mps 706 mmHg 53%
    09:00 +28°C° 0 mm 2 mps 706 mmHg 45%
    10:00 +29°C° 0 mm 3 mps 706 mmHg 43%
    11:00 +30°C° 0 mm 3 mps 706 mmHg 41%
    12:00 +32°C° 0 mm 4 mps 706 mmHg 39%
    13:00 +32°C° 0 mm 4 mps 706 mmHg 39%
    14:00 +30°C° 0 mm 4 mps 705 mmHg 39%
    15:00 +30°C° 0 mm 4 mps 705 mmHg 40%
    16:00 +29°C° 0 mm 4 mps 705 mmHg 45%
    17:00 +27°C° 0 mm 3 mps 705 mmHg 51%
    18:00 +26°C° 0 mm 3 mps 705 mmHg 56%
    19:00 +24°C° 0.1 mm 2 mps 705 mmHg 61%
    20:00 +23°C° 0.1 mm 2 mps 705 mmHg 65%
    21:00 +21°C° 0.1 mm 2 mps 705 mmHg 70%
    22:00 +21°C° 0.1 mm 2 mps 705 mmHg 68%
    23:00 +20°C° 0.1 mm 2 mps 705 mmHg 67%

    27 August, Monday

    Time Temperature Precipitation Wind Pressure Humidity
    00:00 +20°C° 0.1 mm 2 mps 705 mmHg 66%
    01:00 +20°C° 0.1 mm 2 mps 705 mmHg 64%
    02:00 +20°C° 0.1 mm 2 mps 704 mmHg 63%
    03:00 +19°C° 0.1 mm 2 mps 704 mmHg 61%
    04:00 +21°C° 0 mm 1 mps 704 mmHg 61%
    05:00 +21°C° 0 mm 1 mps 705 mmHg 60%
    06:00 +21°C° 0 mm 1 mps 705 mmHg 59%
    07:00 +23°C° 0 mm 1 mps 705 mmHg 54%
    08:00 +25°C° 0 mm 2 mps 705 mmHg 49%
    09:00 +27°C° 0 mm 2 mps 706 mmHg 44%
    10:00 +28°C° 0 mm 2 mps 706 mmHg 42%
    11:00 +29°C° 0 mm 3 mps 706 mmHg 41%
    12:00 +30°C° 0 mm 3 mps 705 mmHg 40%
    13:00 +30°C° 0.1 mm 3 mps 705 mmHg 41%
    14:00 +29°C° 0.1 mm 3 mps 705 mmHg 42%
    15:00 +29°C° 0.1 mm 4 mps 705 mmHg 43%
    16:00 +28°C° 0.1 mm 3 mps 705 mmHg 49%
    17:00 +26°C° 0.1 mm 3 mps 705 mmHg 55%
    18:00 +25°C° 0.1 mm 2 mps 706 mmHg 61%
    19:00 +24°C° 0.2 mm 2 mps 706 mmHg 67%
    20:00 +22°C° 0.2 mm 1 mps 706 mmHg 73%
    21:00 +21°C° 0.2 mm 1 mps 706 mmHg 79%
    22:00 +21°C° 0.1 mm 1 mps 706 mmHg 79%
    23:00 +20°C° 0.1 mm 1 mps 706 mmHg 80%
    Show more